| time (UTC) | temp C | wind direction | speed KPH | gust KPH | rain 1hr cm | rain 24hr cm | rain mn cm | humidity % | barometer mb |
| 20260505010515 | 16 | 0.0 | 0.0 | 0.00 | 0.00 | 0.00 | 52 | 1009.1 | |
| 20260505010015 | 17 | 0.0 | 1.6 | 0.00 | 0.00 | 0.00 | 51 | 1009.1 | |
| 20260505005515 | 17 | 0.0 | 0.0 | 0.00 | 0.00 | 0.00 | 50 | 1009.0 | |
| 20260505005015 | 17 | 0.0 | 0.0 | 0.00 | 0.00 | 0.00 | 49 | 1008.9 | |
| 20260505004515 | 17 | 0.0 | 1.6 | 0.00 | 0.00 | 0.00 | 49 | 1008.9 | |
| 20260505004015 | 18 | 0.0 | 3.2 | 0.00 | 0.00 | 0.00 | 47 | 1008.8 | |
| 20260505003515 | 18 | 0.0 | 4.8 | 0.00 | 0.00 | 0.00 | 47 | 1008.6 | |
| 20260505003015 | 18 | 225 | 1.6 | 12.9 | 0.00 | 0.00 | 0.00 | 47 | 1008.6 |
| 20260505002515 | 18 | 180 | 1.6 | 8.0 | 0.00 | 0.00 | 0.00 | 46 | 1008.5 |
| 20260505002015 | 18 | 180 | 3.2 | 12.9 | 0.00 | 0.00 | 0.00 | 47 | 1008.5 |
| 20260505001515 | 18 | 225 | 3.2 | 11.3 | 0.00 | 0.00 | 0.00 | 46 | 1008.3 |
| 20260505001015 | 19 | 180 | 3.2 | 9.7 | 0.00 | 0.00 | 0.00 | 45 | 1008.2 |
| 20260505000515 | 19 | 180 | 3.2 | 11.3 | 0.00 | 0.00 | 0.00 | 45 | 1008.1 |
| 20260505000015 | 19 | 180 | 4.8 | 12.9 | 0.00 | 0.00 | 0.00 | 44 | 1008.1 |
| 20260504235515 | 20 | 203 | 3.2 | 11.3 | 0.00 | 0.00 | 0.00 | 44 | 1007.9 |
| 20260504235015 | 20 | 180 | 4.8 | 11.3 | 0.00 | 0.00 | 0.00 | 44 | 1007.8 |
| 20260504234515 | 20 | 180 | 3.2 | 14.5 | 0.00 | 0.00 | 0.00 | 43 | 1007.8 |
| 20260504234015 | 20 | 203 | 4.8 | 14.5 | 0.00 | 0.00 | 0.00 | 43 | 1007.7 |
| 20260504233515 | 20 | 180 | 4.8 | 11.3 | 0.00 | 0.00 | 0.00 | 43 | 1007.6 |
| 20260504233015 | 20 | 180 | 4.8 | 11.3 | 0.00 | 0.00 | 0.00 | 42 | 1007.7 |
| 20260504232515 | 20 | 203 | 6.4 | 14.5 | 0.00 | 0.00 | 0.00 | 42 | 1007.6 |
| 20260504232015 | 20 | 180 | 6.4 | 16.1 | 0.00 | 0.00 | 0.00 | 42 | 1007.6 |
| 20260504231515 | 20 | 180 | 4.8 | 19.3 | 0.00 | 0.00 | 0.00 | 42 | 1007.5 |
| 20260504231015 | 21 | 180 | 8.0 | 17.7 | 0.00 | 0.00 | 0.00 | 42 | 1007.4 |
| 20260504230515 | 21 | 225 | 4.8 | 14.5 | 0.00 | 0.00 | 0.00 | 42 | 1007.4 |
| 20260504230015 | 21 | 225 | 6.4 | 17.7 | 0.00 | 0.00 | 0.00 | 42 | 1007.3 |
| 20260504225515 | 21 | 203 | 4.8 | 14.5 | 0.00 | 0.00 | 0.00 | 41 | 1007.2 |
| 20260504225015 | 21 | 180 | 6.4 | 16.1 | 0.00 | 0.00 | 0.00 | 41 | 1007.2 |
| 20260504224515 | 21 | 180 | 8.0 | 22.5 | 0.00 | 0.00 | 0.00 | 41 | 1007.2 |
| 20260504224015 | 21 | 203 | 4.8 | 16.1 | 0.00 | 0.00 | 0.00 | 41 | 1007.1 |
| 20260504223515 | 21 | 180 | 6.4 | 16.1 | 0.00 | 0.00 | 0.00 | 41 | 1007.2 |
| 20260504223015 | 21 | 203 | 6.4 | 17.7 | 0.00 | 0.00 | 0.00 | 40 | 1007.2 |
| 20260504222515 | 21 | 203 | 8.0 | 16.1 | 0.00 | 0.00 | 0.00 | 40 | 1007.2 |
| 20260504222015 | 21 | 203 | 8.0 | 19.3 | 0.00 | 0.00 | 0.00 | 41 | 1007.2 |
| 20260504221515 | 21 | 180 | 8.0 | 20.9 | 0.00 | 0.00 | 0.00 | 40 | 1007.2 |
| 20260504221015 | 21 | 180 | 4.8 | 16.1 | 0.00 | 0.00 | 0.00 | 41 | 1007.2 |
| 20260504220515 | 21 | 225 | 6.4 | 22.5 | 0.00 | 0.00 | 0.00 | 40 | 1007.4 |
| 20260504220015 | 21 | 180 | 6.4 | 24.1 | 0.00 | 0.00 | 0.00 | 40 | 1007.5 |
| 20260504215515 | 22 | 180 | 4.8 | 19.3 | 0.00 | 0.00 | 0.00 | 39 | 1007.4 |
| 20260504215015 | 22 | 180 | 9.7 | 20.9 | 0.00 | 0.00 | 0.00 | 38 | 1007.4 |
| 20260504214515 | 22 | 203 | 8.0 | 25.7 | 0.00 | 0.00 | 0.00 | 37 | 1007.6 |
| 20260504214015 | 22 | 180 | 8.0 | 17.7 | 0.00 | 0.00 | 0.00 | 37 | 1007.5 |
| 20260504213515 | 22 | 203 | 12.9 | 33.8 | 0.00 | 0.00 | 0.00 | 37 | 1007.6 |
| 20260504213015 | 22 | 203 | 11.3 | 24.1 | 0.00 | 0.00 | 0.00 | 36 | 1007.7 |
| 20260504212515 | 23 | 225 | 8.0 | 19.3 | 0.00 | 0.00 | 0.00 | 37 | 1007.7 |
| 20260504212015 | 23 | 180 | 8.0 | 20.9 | 0.00 | 0.00 | 0.00 | 36 | 1007.8 |
| 20260504211515 | 23 | 203 | 9.7 | 19.3 | 0.00 | 0.00 | 0.00 | 37 | 1007.7 |
| 20260504211015 | 23 | 225 | 11.3 | 27.4 | 0.00 | 0.00 | 0.00 | 36 | 1007.8 |
| 20260504210515 | 23 | 203 | 8.0 | 19.3 | 0.00 | 0.00 | 0.00 | 36 | 1007.8 |
| 20260504210015 | 23 | 225 | 9.7 | 22.5 | 0.00 | 0.00 | 0.00 | 36 | 1007.9 |
| 20260504205515 | 23 | 203 | 8.0 | 19.3 | 0.00 | 0.00 | 0.00 | 36 | 1007.9 |
| 20260504205015 | 23 | 225 | 6.4 | 17.7 | 0.00 | 0.00 | 0.00 | 36 | 1007.9 |
| 20260504204515 | 23 | 248 | 9.7 | 20.9 | 0.00 | 0.00 | 0.00 | 37 | 1007.9 |
| 20260504204015 | 23 | 225 | 9.7 | 24.1 | 0.00 | 0.00 | 0.00 | 36 | 1007.9 |
| 20260504203517 | 23 | 203 | 8.0 | 29.0 | 0.00 | 0.00 | 0.00 | 38 | 1007.9 |
| 20260504203017 | 22 | 225 | 12.9 | 35.4 | 0.00 | 0.00 | 0.00 | 37 | 1007.9 |
| 20260504202517 | 22 | 203 | 11.3 | 25.7 | 0.00 | 0.00 | 0.00 | 38 | 1007.8 |
| 20260504202017 | 22 | 158 | 8.0 | 22.5 | 0.00 | 0.00 | 0.00 | 37 | 1007.8 |
| 20260504201517 | 22 | 203 | 11.3 | 25.7 | 0.00 | 0.00 | 0.00 | 38 | 1008.0 |
| 20260504201017 | 22 | 203 | 8.0 | 22.5 | 0.00 | 0.00 | 0.00 | 37 | 1008.0 |
| 20260504200517 | 22 | 203 | 9.7 | 24.1 | 0.00 | 0.00 | 0.00 | 36 | 1008.1 |
| 20260504200017 | 22 | 158 | 8.0 | 19.3 | 0.00 | 0.00 | 0.00 | 36 | 1008.1 |
| 20260504195517 | 22 | 225 | 9.7 | 22.5 | 0.00 | 0.00 | 0.00 | 38 | 1008.1 |
| 20260504195017 | 22 | 225 | 8.0 | 27.4 | 0.00 | 0.00 | 0.00 | 37 | 1008.3 |
| 20260504194517 | 22 | 203 | 11.3 | 24.1 | 0.00 | 0.00 | 0.00 | 37 | 1008.3 |
| 20260504194017 | 22 | 225 | 9.7 | 17.7 | 0.00 | 0.00 | 0.00 | 40 | 1008.4 |
| 20260504193517 | 22 | 225 | 8.0 | 25.7 | 0.00 | 0.00 | 0.00 | 38 | 1008.4 |
| 20260504193017 | 22 | 225 | 11.3 | 20.9 | 0.00 | 0.00 | 0.00 | 36 | 1008.4 |
| 20260504192517 | 21 | 225 | 9.7 | 29.0 | 0.00 | 0.00 | 0.00 | 37 | 1008.4 |
| 20260504192017 | 22 | 203 | 14.5 | 33.8 | 0.00 | 0.00 | 0.00 | 37 | 1008.6 |
| 20260504191517 | 22 | 203 | 8.0 | 19.3 | 0.00 | 0.00 | 0.00 | 37 | 1008.6 |
| 20260504191016 | 21 | 203 | 9.7 | 19.3 | 0.00 | 0.00 | 0.00 | 41 | 1008.6 |
| 20260504190517 | 21 | 225 | 8.0 | 17.7 | 0.00 | 0.00 | 0.00 | 37 | 1008.7 |
| 20260504190017 | 22 | 225 | 11.3 | 22.5 | 0.00 | 0.00 | 0.00 | 37 | 1008.7 |
| 20260504185517 | 21 | 203 | 8.0 | 25.7 | 0.00 | 0.00 | 0.00 | 39 | 1008.7 |
| 20260504185017 | 21 | 225 | 6.4 | 14.5 | 0.00 | 0.00 | 0.00 | 37 | 1008.8 |
| 20260504184517 | 22 | 180 | 11.3 | 33.8 | 0.00 | 0.00 | 0.00 | 37 | 1008.8 |
| 20260504184016 | 22 | 158 | 9.7 | 22.5 | 0.00 | 0.00 | 0.00 | 36 | 1008.9 |
| 20260504183517 | 23 | 135 | 8.0 | 17.7 | 0.00 | 0.00 | 0.00 | 35 | 1009.0 |
| 20260504183017 | 23 | 203 | 9.7 | 25.7 | 0.00 | 0.00 | 0.00 | 38 | 1009.0 |
| 20260504182517 | 22 | 248 | 9.7 | 19.3 | 0.00 | 0.00 | 0.00 | 37 | 1009.0 |
| 20260504182017 | 22 | 248 | 9.7 | 24.1 | 0.00 | 0.00 | 0.00 | 37 | 1009.1 |
| 20260504181516 | 22 | 225 | 9.7 | 20.9 | 0.00 | 0.00 | 0.00 | 38 | 1009.2 |
| 20260504181016 | 22 | 203 | 12.9 | 27.4 | 0.00 | 0.00 | 0.00 | 37 | 1009.3 |
| 20260504180517 | 22 | 203 | 11.3 | 30.6 | 0.00 | 0.00 | 0.00 | 38 | 1009.3 |
| 20260504180016 | 22 | 225 | 9.7 | 24.1 | 0.00 | 0.00 | 0.00 | 37 | 1009.5 |
| 20260504175516 | 21 | 225 | 11.3 | 30.6 | 0.00 | 0.00 | 0.00 | 42 | 1009.5 |
| 20260504175016 | 21 | 203 | 9.7 | 19.3 | 0.00 | 0.00 | 0.00 | 38 | 1009.5 |
| 20260504174516 | 21 | 225 | 12.9 | 25.7 | 0.00 | 0.00 | 0.00 | 38 | 1009.5 |
| 20260504174016 | 21 | 225 | 9.7 | 20.9 | 0.00 | 0.00 | 0.00 | 41 | 1009.5 |
| 20260504173516 | 21 | 203 | 11.3 | 25.7 | 0.00 | 0.00 | 0.00 | 39 | 1009.6 |
| 20260504173016 | 21 | 225 | 11.3 | 25.7 | 0.00 | 0.00 | 0.00 | 39 | 1009.7 |
| 20260504172516 | 20 | 225 | 9.7 | 22.5 | 0.00 | 0.00 | 0.00 | 40 | 1009.8 |
| 20260504172017 | 21 | 203 | 14.5 | 30.6 | 0.00 | 0.00 | 0.00 | 37 | 1010.0 |
| 20260504171516 | 21 | 158 | 8.0 | 25.7 | 0.00 | 0.00 | 0.00 | 40 | 1009.9 |
| 20260504171016 | 21 | 203 | 9.7 | 20.9 | 0.00 | 0.00 | 0.00 | 40 | 1010.1 |
| 20260504170516 | 20 | 225 | 9.7 | 19.3 | 0.00 | 0.00 | 0.00 | 39 | 1010.3 |
| 20260504151016 | 19 | 203 | 9.7 | 20.9 | 0.00 | 0.00 | 0.00 | 40 | 1011.2 |
| 20260504150516 | 19 | 225 | 9.7 | 25.7 | 0.00 | 0.00 | 0.00 | 43 | 1011.3 |
| 20260504141016 | 17 | 180 | 9.7 | 24.1 | 0.00 | 0.00 | 0.00 | 45 | 1012.0 |
| 20260504140516 | 17 | 225 | 9.7 | 30.6 | 0.00 | 0.00 | 0.00 | 45 | 1012.1 |
| 20260504130516 | 15 | 225 | 9.7 | 29.0 | 0.00 | 0.00 | 0.00 | 49 | 1012.6 |
| 20260504110516 | 4 | 0.0 | 3.2 | 0.00 | 0.00 | 0.00 | 86 | 1012.6 | |
| 20260504100515 | 3 | 0.0 | 1.6 | 0.00 | 0.00 | 0.00 | 86 | 1012.4 | |
| 20260504081515 | 5 | 203 | 3.2 | 8.0 | 0.00 | 0.00 | 0.00 | 76 | 1012.3 |
| 20260504081015 | 5 | 203 | 3.2 | 6.4 | 0.00 | 0.00 | 0.00 | 77 | 1012.3 |
| 20260504080515 | 5 | 180 | 1.6 | 6.4 | 0.00 | 0.00 | 0.00 | 77 | 1012.4 |
| 20260504050515 | 3 | 0.0 | 0.0 | 0.00 | 0.00 | 0.00 | 85 | 1011.6 | |
| 20260504050015 | 3 | 0.0 | 0.0 | 0.00 | 0.00 | 0.00 | 84 | 1011.5 | |
| 20260504045515 | 3 | 0.0 | 0.0 | 0.00 | 0.00 | 0.00 | 83 | 1011.6 | |
| 20260504045015 | 3 | 0.0 | 0.0 | 0.00 | 0.00 | 0.00 | 83 | 1011.6 | |
| 20260504044515 | 3 | 0.0 | 0.0 | 0.00 | 0.00 | 0.00 | 83 | 1011.7 | |
| 20260504044015 | 3 | 0.0 | 0.0 | 0.00 | 0.00 | 0.00 | 82 | 1011.7 | |
| 20260504043515 | 4 | 0.0 | 0.0 | 0.00 | 0.00 | 0.00 | 82 | 1011.7 | |
| 20260504043015 | 4 | 0.0 | 0.0 | 0.00 | 0.00 | 0.00 | 82 | 1011.7 | |
| 20260504042515 | 4 | 0.0 | 0.0 | 0.00 | 0.00 | 0.00 | 81 | 1011.7 | |
| 20260504042015 | 4 | 0.0 | 0.0 | 0.00 | 0.00 | 0.00 | 82 | 1011.7 | |
| 20260504041515 | 5 | 0.0 | 0.0 | 0.00 | 0.00 | 0.00 | 83 | 1011.6 | |
| 20260504041015 | 5 | 0.0 | 0.0 | 0.00 | 0.00 | 0.00 | 82 | 1011.5 | |
| 20260504040515 | 5 | 0.0 | 0.0 | 0.00 | 0.00 | 0.00 | 82 | 1011.5 | |
| 20260504040015 | 5 | 0.0 | 0.0 | 0.00 | 0.00 | 0.00 | 81 | 1011.4 | |
| 20260504035516 | 5 | 0.0 | 0.0 | 0.00 | 0.00 | 0.00 | 81 | 1011.4 | |
| 20260504035016 | 5 | 0.0 | 0.0 | 0.00 | 0.00 | 0.00 | 81 | 1011.3 | |
| 20260504034516 | 5 | 0.0 | 0.0 | 0.00 | 0.00 | 0.00 | 80 | 1011.3 | |
| 20260504034016 | 5 | 0.0 | 0.0 | 0.00 | 0.00 | 0.00 | 80 | 1011.4 | |
| 20260504033516 | 5 | 0.0 | 0.0 | 0.00 | 0.00 | 0.00 | 80 | 1011.3 | |
| 20260504033016 | 5 | 0.0 | 0.0 | 0.00 | 0.00 | 0.00 | 81 | 1011.3 | |
| 20260504032516 | 5 | 0.0 | 0.0 | 0.00 | 0.00 | 0.00 | 82 | 1011.4 | |
| 20260504032021 | 5 | 0.0 | 0.0 | 0.00 | 0.00 | 0.00 | 81 | 1011.3 | |
| 20260504031516 | 5 | 0.0 | 0.0 | 0.00 | 0.00 | 0.00 | 80 | 1011.3 | |
| 20260504031016 | 5 | 0.0 | 0.0 | 0.00 | 0.00 | 0.00 | 81 | 1011.4 | |
| 20260504030516 | 5 | 0.0 | 0.0 | 0.00 | 0.00 | 0.00 | 81 | 1011.4 | |
| 20260504030016 | 5 | 0.0 | 0.0 | 0.00 | 0.00 | 0.00 | 80 | 1011.4 | |
| 20260504025516 | 5 | 0.0 | 0.0 | 0.00 | 0.00 | 0.00 | 76 | 1011.4 | |
| 20260504025016 | 6 | 0.0 | 0.0 | 0.00 | 0.00 | 0.00 | 75 | 1011.4 | |
| 20260504024516 | 6 | 0.0 | 0.0 | 0.00 | 0.00 | 0.00 | 76 | 1011.4 | |
| 20260504024016 | 6 | 0.0 | 0.0 | 0.00 | 0.00 | 0.00 | 76 | 1011.5 | |
| 20260504023516 | 6 | 0.0 | 0.0 | 0.00 | 0.00 | 0.00 | 74 | 1011.5 | |
| 20260504023016 | 6 | 0.0 | 0.0 | 0.00 | 0.00 | 0.00 | 73 | 1011.5 | |
| 20260504022516 | 6 | 0.0 | 0.0 | 0.00 | 0.00 | 0.00 | 71 | 1011.4 | |
| 20260504022016 | 6 | 0.0 | 0.0 | 0.00 | 0.00 | 0.00 | 69 | 1011.4 | |
| 20260504021516 | 7 | 0.0 | 0.0 | 0.00 | 0.00 | 0.00 | 68 | 1011.4 | |
| 20260504021016 | 7 | 0.0 | 0.0 | 0.00 | 0.00 | 0.00 | 68 | 1011.4 | |
| 20260504020515 | 7 | 0.0 | 0.0 | 0.00 | 0.00 | 0.00 | 67 | 1011.4 | |
| 20260504020016 | 7 | 0.0 | 0.0 | 0.00 | 0.00 | 0.00 | 66 | 1011.4 | |
| 20260504015516 | 7 | 0.0 | 0.0 | 0.00 | 0.00 | 0.00 | 64 | 1011.4 | |
| 20260504015016 | 7 | 0.0 | 0.0 | 0.00 | 0.00 | 0.00 | 64 | 1011.4 | |
| 20260504014516 | 8 | 0.0 | 0.0 | 0.00 | 0.00 | 0.00 | 63 | 1011.4 | |
| 20260504014015 | 8 | 0.0 | 0.0 | 0.00 | 0.00 | 0.00 | 60 | 1011.4 | |
| 20260504013516 | 8 | 0.0 | 0.0 | 0.00 | 0.00 | 0.00 | 59 | 1011.4 | |
| 20260504013016 | 8 | 0.0 | 0.0 | 0.00 | 0.00 | 0.00 | 58 | 1011.4 | |
| 20260504012516 | 9 | 0.0 | 0.0 | 0.00 | 0.00 | 0.00 | 57 | 1011.3 | |
| 20260504012016 | 9 | 0.0 | 0.0 | 0.00 | 0.00 | 0.00 | 57 | 1011.3 | |
| 20260504011515 | 10 | 0.0 | 0.0 | 0.00 | 0.00 | 0.00 | 55 | 1011.3 | |
| 20260504011015 | 10 | 0.0 | 0.0 | 0.00 | 0.00 | 0.00 | 53 | 1011.3 |